Starlink 34917

operational
NORAD ID: 65190 Int'l Des: 2025-175 Owner: SPXS Country: US Constellation: starlink
LEOCIRCULARRETROGRADESSO

Über Starlink 34917

Beschreibung wird geladen...

Live-Position

3D-Globus wird geladen...

Nächste Überflüge

Höhenverlauf

Altitude vs Time

uPlot chart will show altitude changes over time

Zweizeiliger Elementsatz

1 65190U 25175S 26061.16668981 -.00001208 00000-0 -79469-4 0 9993
2 65190 97.6041 295.2705 0002402 64.3987 172.0040 15.05659583 5775
Epoch: 2. März 2026 • Age: 26 hours

Aktueller Status

Höhe 555.1 km
Geschwindigkeit 7.59 km/s
Subsatellitenpunkt 41.23°N, 66.45°W
Startdatum 14. Aug. 2025
Alter 0.5 years
Typ internet

Technische Details

Klassifizierung Payload
Masse 575.00 kg
Trockenmasse 530.00 kg
Gesamtmasse 575.00 kg
Länge 0.30 m
Durchmesser 4.10 m
Spannweite 29.00 m
Form Box + pan
Hersteller SPXS
Bus-Typ Starlink V2MO
Phasenstatus In Orbit
Besitzer/Staat SPXS/US

Große Konstellationen

Loading constellations...